Location: Brad
(46.1333°N, 22.7833°E)
Time: 10:10:46
(UTC+00:00)

Cosmos 1461 - Pass Details

Date: 03 February 2023
Orbit: 492 x 644 km, 65.0° (Epoch: 20 March)

Event Time Altitude Azimuth Distance (km) Brightness Sun altitude
Rises 17:39:46 0° 232° (SW) 2,751 7.2 -21.6°
Reaches altitude 10° 17:42:00 10° 238° (WSW) 1,885 6.4 -22.0°
Maximum altitude 17:46:06 46° 312° (NW) 810 3.9 -22.7°
Enters shadow 17:47:58 29° 8° (N) 1,134 4.3 -23.0°
